EN

Hourly Weather Komissary

Today, 1 October, Thursday

Time Temperature Precipitation Wind Pressure Humidity
00:00 +10°C° 0 mm 2 mps 754 mmHg 84%
01:00 +9°C° 0 mm 2 mps 754 mmHg 83%
02:00 +9°C° 0 mm 2 mps 754 mmHg 83%
03:00 +9°C° 0 mm 2 mps 754 mmHg 82%
04:00 +8°C° 0 mm 2 mps 754 mmHg 82%
05:00 +8°C° 0 mm 3 mps 754 mmHg 81%
06:00 +9°C° 0 mm 3 mps 754 mmHg 77%
07:00 +9°C° 0 mm 3 mps 754 mmHg 74%
08:00 +10°C° 0 mm 3 mps 754 mmHg 70%
09:00 +12°C° 0 mm 3 mps 754 mmHg 65%
10:00 +13°C° 0 mm 3 mps 754 mmHg 61%
11:00 +16°C° 0 mm 3 mps 754 mmHg 56%
12:00 +17°C° 0 mm 4 mps 754 mmHg 54%
13:00 +18°C° 0 mm 4 mps 754 mmHg 52%
14:00 +18°C° 0 mm 4 mps 754 mmHg 50%
15:00 +17°C° 0 mm 4 mps 754 mmHg 55%
16:00 +16°C° 0 mm 3 mps 754 mmHg 60%
17:00 +14°C° 0 mm 3 mps 754 mmHg 65%
18:00 +13°C° 0 mm 3 mps 754 mmHg 68%
19:00 +12°C° 0 mm 3 mps 755 mmHg 71%
20:00 +11°C° 0 mm 3 mps 755 mmHg 74%
21:00 +11°C° 0 mm 3 mps 755 mmHg 74%
22:00 +10°C° 0 mm 3 mps 755 mmHg 75%
23:00 +9°C° 0 mm 3 mps 755 mmHg 76%

Tomorrow, 2 October, Friday

Time Temperature Precipitation Wind Pressure Humidity
00:00 +9°C° 0 mm 3 mps 755 mmHg 76%
01:00 +9°C° 0 mm 3 mps 755 mmHg 76%
02:00 +8°C° 0 mm 3 mps 755 mmHg 75%
03:00 +8°C° 0 mm 3 mps 755 mmHg 76%
04:00 +8°C° 0 mm 3 mps 755 mmHg 76%
05:00 +8°C° 0 mm 3 mps 755 mmHg 76%
06:00 +8°C° 0 mm 3 mps 755 mmHg 74%
07:00 +9°C° 0 mm 3 mps 755 mmHg 72%
08:00 +9°C° 0 mm 3 mps 756 mmHg 70%
09:00 +11°C° 0 mm 3 mps 756 mmHg 66%
10:00 +12°C° 0 mm 3 mps 756 mmHg 63%
11:00 +14°C° 0 mm 3 mps 756 mmHg 60%
12:00 +15°C° 0 mm 4 mps 756 mmHg 57%
13:00 +17°C° 0 mm 4 mps 756 mmHg 55%
14:00 +18°C° 0 mm 4 mps 756 mmHg 53%
15:00 +17°C° 0 mm 4 mps 756 mmHg 57%
16:00 +16°C° 0 mm 3 mps 756 mmHg 62%
17:00 +14°C° 0 mm 3 mps 756 mmHg 66%
18:00 +13°C° 0 mm 3 mps 756 mmHg 68%
19:00 +12°C° 0 mm 3 mps 756 mmHg 69%
20:00 +12°C° 0 mm 3 mps 756 mmHg 70%
21:00 +11°C° 0 mm 3 mps 756 mmHg 72%
22:00 +11°C° 0 mm 3 mps 756 mmHg 75%
23:00 +10°C° 0 mm 3 mps 756 mmHg 77%

Day after tomorrow, 3 October, Saturday

Time Temperature Precipitation Wind Pressure Humidity
00:00 +11°C° 0 mm 3 mps 756 mmHg 76%
01:00 +11°C° 0 mm 3 mps 756 mmHg 74%
02:00 +12°C° 0 mm 3 mps 756 mmHg 72%
03:00 +12°C° 0 mm 3 mps 756 mmHg 73%
04:00 +12°C° 0 mm 3 mps 756 mmHg 74%
05:00 +12°C° 0 mm 3 mps 756 mmHg 76%
06:00 +12°C° 0 mm 3 mps 756 mmHg 76%
07:00 +12°C° 0 mm 3 mps 756 mmHg 76%
08:00 +12°C° 0 mm 4 mps 755 mmHg 76%
09:00 +13°C° 0 mm 4 mps 756 mmHg 74%
10:00 +13°C° 0 mm 4 mps 756 mmHg 71%
11:00 +14°C° 0 mm 4 mps 756 mmHg 68%
12:00 +15°C° 0 mm 4 mps 756 mmHg 65%
13:00 +17°C° 0 mm 4 mps 755 mmHg 62%
14:00 +18°C° 0 mm 4 mps 755 mmHg 59%
15:00 +17°C° 0 mm 4 mps 755 mmHg 62%
16:00 +15°C° 0 mm 4 mps 755 mmHg 65%
17:00 +16°C° 0 mm 3 mps 755 mmHg 68%
18:00 +14°C° 0 mm 3 mps 756 mmHg 71%
19:00 +13°C° 0 mm 3 mps 756 mmHg 73%
20:00 +12°C° 0 mm 3 mps 756 mmHg 76%
21:00 +12°C° 0 mm 3 mps 756 mmHg 78%
22:00 +12°C° 0 mm 3 mps 756 mmHg 81%
23:00 +11°C° 0 mm 3 mps 756 mmHg 83%

4 October, Sunday

Time Temperature Precipitation Wind Pressure Humidity
00:00 +11°C° 0 mm 3 mps 756 mmHg 83%
01:00 +11°C° 0 mm 3 mps 756 mmHg 83%
02:00 +11°C° 0 mm 3 mps 756 mmHg 82%
03:00 +11°C° 0 mm 3 mps 756 mmHg 82%
04:00 +12°C° 0 mm 4 mps 756 mmHg 82%
05:00 +12°C° 0 mm 4 mps 755 mmHg 82%
06:00 +12°C° 0 mm 4 mps 755 mmHg 81%
07:00 +12°C° 0 mm 4 mps 755 mmHg 80%
08:00 +12°C° 0 mm 4 mps 755 mmHg 79%
09:00 +12°C° 0 mm 5 mps 755 mmHg 77%
10:00 +13°C° 0 mm 5 mps 755 mmHg 75%
11:00 +14°C° 0 mm 5 mps 755 mmHg 72%
12:00 +14°C° 0 mm 5 mps 755 mmHg 69%
13:00 +15°C° 0 mm 5 mps 755 mmHg 66%
14:00 +15°C° 0 mm 5 mps 755 mmHg 62%
15:00 +15°C° 0 mm 5 mps 755 mmHg 65%
16:00 +14°C° 0 mm 4 mps 755 mmHg 68%
17:00 +13°C° 0 mm 4 mps 754 mmHg 71%
18:00 +12°C° 0 mm 4 mps 754 mmHg 72%
19:00 +12°C° 0 mm 4 mps 754 mmHg 73%
20:00 +11°C° 0 mm 4 mps 754 mmHg 75%
21:00 +11°C° 0 mm 4 mps 754 mmHg 75%
22:00 +11°C° 0 mm 4 mps 754 mmHg 76%
23:00 +11°C° 0 mm 4 mps 754 mmHg 76%

5 October, Monday

Time Temperature Precipitation Wind Pressure Humidity
00:00 +11°C° 0 mm 4 mps 754 mmHg 76%
01:00 +10°C° 0 mm 4 mps 754 mmHg 77%
02:00 +10°C° 0 mm 4 mps 753 mmHg 77%
03:00 +10°C° 0.1 mm 4 mps 753 mmHg 80%
04:00 +10°C° 0.1 mm 4 mps 753 mmHg 82%
05:00 +9°C° 0.1 mm 5 mps 752 mmHg 84%
06:00 +10°C° 0.1 mm 4 mps 752 mmHg 85%
07:00 +11°C° 0.1 mm 4 mps 752 mmHg 87%
08:00 +11°C° 0.1 mm 4 mps 751 mmHg 89%
09:00 +11°C° 0.1 mm 4 mps 751 mmHg 88%
10:00 +12°C° 0.1 mm 4 mps 751 mmHg 88%
11:00 +12°C° 0.1 mm 4 mps 751 mmHg 88%
12:00 +13°C° 0 mm 4 mps 751 mmHg 88%
13:00 +13°C° 0 mm 4 mps 750 mmHg 87%
14:00 +13°C° 0 mm 4 mps 750 mmHg 87%
15:00 +13°C° 0 mm 4 mps 750 mmHg 86%
16:00 +13°C° 0 mm 4 mps 750 mmHg 86%
17:00 +14°C° 0 mm 4 mps 749 mmHg 86%
18:00 +14°C° 0.1 mm 4 mps 749 mmHg 86%
19:00 +14°C° 0.1 mm 4 mps 749 mmHg 87%
20:00 +14°C° 0.1 mm 4 mps 749 mmHg 88%
21:00 +14°C° 0.2 mm 4 mps 748 mmHg 89%
22:00 +14°C° 0.2 mm 4 mps 748 mmHg 89%
23:00 +14°C° 0.2 mm 4 mps 748 mmHg 89%

6 October, Tuesday

Time Temperature Precipitation Wind Pressure Humidity
00:00 +13°C° 0 mm 4 mps 747 mmHg 89%
01:00 +13°C° 0 mm 4 mps 747 mmHg 89%
02:00 +13°C° 0 mm 4 mps 747 mmHg 88%
03:00 +13°C° 0.1 mm 4 mps 746 mmHg 90%
04:00 +13°C° 0.1 mm 4 mps 746 mmHg 91%
05:00 +12°C° 0.1 mm 4 mps 746 mmHg 92%
06:00 +13°C° 0.1 mm 4 mps 745 mmHg 91%
07:00 +13°C° 0.1 mm 4 mps 745 mmHg 90%
08:00 +13°C° 0.1 mm 4 mps 745 mmHg 89%
09:00 +13°C° 1.1 mm 4 mps 745 mmHg 90%
10:00 +13°C° 1.1 mm 4 mps 745 mmHg 92%
11:00 +13°C° 1.1 mm 4 mps 745 mmHg 93%
12:00 +14°C° 0.1 mm 4 mps 745 mmHg 91%
13:00 +15°C° 0.1 mm 4 mps 745 mmHg 89%
14:00 +17°C° 0.1 mm 4 mps 745 mmHg 87%
15:00 +17°C° 0 mm 3 mps 745 mmHg 88%
16:00 +16°C° 0 mm 3 mps 745 mmHg 89%
17:00 +16°C° 0 mm 3 mps 745 mmHg 90%
18:00 +16°C° 0 mm 3 mps 745 mmHg 92%
19:00 +15°C° 0 mm 2 mps 745 mmHg 94%
20:00 +14°C° 0 mm 2 mps 745 mmHg 96%
21:00 +14°C° 0 mm 2 mps 746 mmHg 96%
22:00 +14°C° 0 mm 2 mps 746 mmHg 96%
23:00 +13°C° 0 mm 1 mps 746 mmHg 97%
Show more

We Need Your Consent

Meteoprog and our Service Providers may store and access personal data such as cookies, device identifiers or other similar technologies on your device and process such data to personalise content and ads, as well as provide social media features and to analyse the traffic.

  • Store and/or access information on your device

    Cookies, device identifiers or other information can be stored or accessed on your device for the purposes indicated above.

  • Personalised ads and content, ad and content measurement, audience insights, and products development

    Ads and content can be personalised based on a profile. More data can be added to better personalise ads and content. Ad and content performance can be measured. Insights about the audience who saw the ads and content can be derived. Such data can be used to develop or improve user’s experience, systems and software.

By clicking ‘I Agree’ you will allow the use of indicated cookies, device identifiers, web beacons or other similar technologies. Your settings can be changed in the browser on your device.

For certain purposes, legitimate interests may be relied on, rather than consent. You can read more about this in our Privacy and Cookie Policy.